"Period start","avg(HW err(1)/warn(2) (#))","avg(Visibility (m))","avg(Weather code (#))","avg(Precip intensity (mm/h))","min(HW err(1)/warn(2) (#))","max(HW err(1)/warn(2) (#))","std(HW err(1)/warn(2) (#))","med(HW err(1)/warn(2) (#))","min(Visibility (m))","max(Visibility (m))","std(Visibility (m))","med(Visibility (m))","min(Weather code (#))","max(Weather code (#))","std(Weather code (#))","med(Weather code (#))","min(Precip intensity (mm/h))","max(Precip intensity (mm/h))","std(Precip intensity (mm/h))","med(Precip intensity (mm/h))"
2013-08-20 00:00:00,2,2313,61,1.86,2,2,0,2,1550,3302,598,2079,61,61,0,61,0.00,6.40,2.31,0.70
2013-08-20 00:10:00,2,1819,67,0.62,2,2,0,2,1657,1966,90,1847,67,67,0,67,0.05,2.50,0.75,0.32
2013-08-20 00:20:00,2,1870,66,1.36,2,2,0,2,1393,2571,372,1833,61,71,4,67,0.15,3.70,1.04,1.02
2013-08-20 00:30:00,2,2255,63,1.85,2,2,0,2,1936,2708,228,2208,61,67,3,61,0.35,4.25,1.04,1.58
2013-08-20 00:40:00,2,1978,61,4.10,2,2,0,2,1394,2353,287,2056,61,61,0,61,1.45,8.00,2.03,3.85
2013-08-20 00:50:00,2,2068,64,2.44,2,2,0,2,1773,2401,209,2068,61,67,3,64,1.55,3.05,0.48,2.52
2013-08-20 01:00:00,2,2137,61,1.76,2,2,0,2,1788,2651,262,2099,61,61,0,61,0.30,4.30,1.13,1.65
2013-08-20 01:10:00,2,1917,65,0.45,2,2,0,2,1722,2160,145,1915,61,67,3,67,0.10,1.90,0.51,0.28
2013-08-20 01:20:00,2,2312,65,0.53,2,2,0,2,1796,2968,390,2336,61,67,3,67,0.05,1.20,0.30,0.55
2013-08-20 01:30:00,2,3163,63,0.30,2,2,0,2,2134,4520,712,3020,61,71,4,61,0.00,1.50,0.43,0.12
2013-08-20 01:40:00,2,4065,49,0.04,2,2,0,2,2661,5888,1158,3950,10,71,26,61,0.00,0.25,0.08,0.00
2013-08-20 01:50:00,2,3110,20,0.44,2,2,0,2,1980,4779,759,3189,10,61,20,10,0.00,3.95,1.18,0.00
2013-08-20 02:00:00,2,2102,61,3.06,2,2,0,2,1835,2615,232,2042,61,61,0,61,1.05,8.15,2.48,2.02
2013-08-20 02:10:00,2,2810,65,0.74,2,2,0,2,1566,5287,1191,2456,61,67,3,67,0.00,1.55,0.60,0.68
2013-08-20 02:20:00,2,6692,34,1.10,2,2,0,2,2272,16574,4997,4206,10,61,20,40,0.00,3.55,1.42,0.35
2013-08-20 02:30:00,2,26224,24,0.15,2,2,0,2,4842,38423,11039,29604,0,61,30,0,0.00,0.80,0.31,0.00
2013-08-20 02:40:00,2,32709,0,0.00,2,2,0,2,26288,39214,3582,33280,0,0,0,0,0.00,0.00,0.00,0.00
2013-08-20 02:50:00,2,32140,0,0.00,2,2,0,2,24382,42330,6986,31435,0,0,0,0,0.00,0.00,0.00,0.00
2013-08-20 03:00:00,2,26616,0,0.00,2,2,0,2,19214,36369,5374,25708,0,0,0,0,0.00,0.00,0.00,0.00
2013-08-20 03:10:00,2,25961,0,0.00,2,2,0,2,19953,36763,4854,25324,0,0,0,0,0.00,0.00,0.00,0.00
2013-08-20 03:20:00,2,22131,0,0.00,2,2,0,2,19426,28953,3582,20150,0,0,0,0,0.00,0.00,0.00,0.00
2013-08-20 03:30:00,2,21019,0,0.00,2,2,0,2,18196,25921,2510,20270,0,0,0,0,0.00,0.00,0.00,0.00
2013-08-20 03:40:00,2,32911,0,0.00,2,2,0,2,24463,41674,5203,33788,0,0,0,0,0.00,0.00,0.00,0.00
2013-08-20 03:50:00,2,21372,8,0.03,2,2,0,2,15450,29755,4262,19658,0,40,16,0,0.00,0.15,0.05,0.00
2013-08-20 04:00:00,2,25283,20,0.01,2,2,0,2,19232,30814,3837,25495,0,51,25,0,0.00,0.05,0.02,0.00
2013-08-20 04:10:00,2,16066,43,1.01,2,2,0,2,10328,26708,4444,14809,0,61,28,61,0.00,2.85,1.08,0.70
2013-08-20 04:20:00,2,12460,42,0.16,2,2,0,2,9430,14859,1753,12392,0,61,27,61,0.00,0.80,0.23,0.12
2013-08-20 04:30:00,2,9485,24,0.09,2,2,0,2,6862,13177,2041,9548,0,61,30,0,0.00,0.50,0.16,0.00
2013-08-20 04:40:00,2,11433,46,0.28,2,2,0,2,7459,16317,2625,11726,0,61,21,51,0.00,0.80,0.27,0.23
2013-08-20 04:50:00,2,14789,54,1.24,2,2,0,2,12997,17768,1440,14148,51,61,5,51,0.30,4.10,1.17,0.70
2013-08-20 05:00:00,2,16211,51,0.39,2,2,0,2,12430,19562,2182,16305,0,61,18,56,0.00,2.05,0.62,0.12
2013-08-20 05:10:00,2,26092,0,0.00,2,2,0,2,15591,39533,8349,25325,0,0,0,0,0.00,0.00,0.00,0.00
2013-08-20 05:20:00,2,35758,0,0.00,2,2,0,2,28217,43914,4769,33979,0,0,0,0,0.00,0.00,0.00,0.00
2013-08-20 05:30:00,2,23653,0,0.00,2,2,0,2,5909,47072,14998,17320,0,0,0,0,0.00,0.00,0.00,0.00
2013-08-20 05:40:00,2,5518,29,0.42,2,2,0,2,4245,8592,1277,5236,0,61,25,25,0.00,1.90,0.58,0.18
2013-08-20 05:50:00,2,3554,56,1.33,2,2,0,2,2381,5886,1002,3384,52,61,4,52,0.20,3.65,0.96,1.00
2013-08-20 06:00:00,2,2251,61,0.72,2,2,0,2,1518,2720,370,2318,61,61,0,61,0.05,1.55,0.49,0.75
2013-08-20 06:10:00,2,2348,66,0.43,2,2,0,2,1756,3132,392,2356,61,71,5,66,0.05,1.85,0.50,0.30
2013-08-20 06:20:00,2,2196,57,0.82,2,2,0,2,1482,2592,305,2221,41,61,8,61,0.25,2.10,0.61,0.65
2013-08-20 06:30:00,2,2303,63,0.93,2,2,0,2,1749,2903,337,2349,61,67,3,61,0.05,3.05,0.90,0.70
2013-08-20 06:40:00,2,2524,61,0.88,2,2,0,2,1891,5017,885,2214,61,61,0,61,0.15,3.15,0.85,0.55
2013-08-20 06:50:00,2,3449,52,0.07,2,2,0,2,2376,7052,1533,2771,41,71,11,51,0.00,0.25,0.08,0.05
2013-08-20 07:00:00,2,9632,10,0.00,2,2,0,2,7109,13649,1788,9634,10,10,0,10,0.00,0.00,0.00,0.00
2013-08-20 07:10:00,2,26487,4,0.00,2,2,0,2,12570,43674,10120,27268,0,10,5,0,0.00,0.00,0.00,0.00
2013-08-20 07:20:00,2,16707,0,0.00,2,2,0,2,6494,27315,7103,15779,0,0,0,0,0.00,0.00,0.00,0.00
2013-08-20 07:30:00,2,5678,7,0.00,2,2,0,2,3977,7200,1018,5678,0,10,5,10,0.00,0.00,0.00,0.00
2013-08-20 07:40:00,2,6595,10,0.00,2,2,0,2,4117,10176,2029,5989,10,10,0,10,0.00,0.00,0.00,0.00
2013-08-20 07:50:00,2,4283,25,0.04,2,2,0,2,2310,6447,1274,4078,10,41,15,25,0.00,0.20,0.06,0.00
2013-08-20 08:00:00,2,4460,41,0.39,2,2,0,2,1966,9119,2591,3196,10,61,18,41,0.00,2.25,0.68,0.07
2013-08-20 08:10:00,2,14620,44,0.06,2,2,0,2,2958,22097,7150,17653,10,71,28,61,0.00,0.55,0.16,0.00
2013-08-20 08:20:00,2,29386,3,0.00,2,2,0,2,22502,35509,4280,30415,0,10,5,0,0.00,0.00,0.00,0.00
2013-08-20 08:30:00,2,31791,0,0.00,2,2,0,2,27780,36344,2833,32349,0,0,0,0,0.00,0.00,0.00,0.00
2013-08-20 08:40:00,2,25932,0,0.00,2,2,0,2,22689,28147,1619,26097,0,0,0,0,0.00,0.00,0.00,0.00
2013-08-20 08:50:00,2,26833,0,0.00,2,2,0,2,23522,33147,2876,25704,0,0,0,0,0.00,0.00,0.00,0.00
2013-08-20 09:00:00,2,25630,28,0.10,2,2,0,2,20860,30713,2903,25245,0,51,24,40,0.00,0.35,0.12,0.03
2013-08-20 09:10:00,2,22550,52,0.90,2,2,0,2,13019,31173,5405,20826,51,61,3,51,0.15,2.75,0.78,0.83
2013-08-20 09:20:00,2,18031,55,0.24,2,2,0,2,13171,22146,2935,18168,51,61,5,51,0.05,0.65,0.15,0.20
2013-08-20 09:30:00,2,20335,42,0.09,2,2,0,2,16371,25642,2721,20036,41,51,3,41,0.05,0.20,0.05,0.05
2013-08-20 09:40:00,2,15734,46,0.15,2,2,0,2,12242,18642,2199,16240,41,51,5,46,0.10,0.30,0.07,0.12
2013-08-20 09:50:00,2,20536,46,0.10,2,2,0,2,18655,24369,1810,19956,41,51,5,46,0.00,0.20,0.06,0.10
2013-08-20 10:00:00,2,21032,16,0.00,2,2,0,2,18915,23907,1636,20568,0,41,20,0,0.00,0.00,0.00,0.00
2013-08-20 10:10:00,2,23708,0,0.00,2,2,0,2,19476,29074,2749,23420,0,0,0,0,0.00,0.00,0.00,0.00
2013-08-20 10:20:00,2,22806,0,0.00,2,2,0,2,20871,24950,1441,22622,0,0,0,0,0.00,0.00,0.00,0.00
2013-08-20 10:30:00,2,22996,0,0.00,2,2,0,2,19815,25849,1769,22708,0,0,0,0,0.00,0.00,0.00,0.00
2013-08-20 10:40:00,2,22610,0,0.00,2,2,0,2,19450,24830,1743,22774,0,0,0,0,0.00,0.00,0.00,0.00
2013-08-20 10:50:00,2,20662,0,0.00,2,2,0,2,19121,23512,1443,20037,0,0,0,0,0.00,0.00,0.00,0.00
2013-08-20 11:00:00,2,21131,0,0.00,2,2,0,2,19025,23003,1549,21327,0,0,0,0,0.00,0.00,0.00,0.00
2013-08-20 11:10:00,2,22143,0,0.00,2,2,0,2,19355,24288,1747,21666,0,0,0,0,0.00,0.00,0.00,0.00
2013-08-20 11:20:00,2,25170,0,0.00,2,2,0,2,22188,29423,2071,24712,0,0,0,0,0.00,0.00,0.00,0.00
2013-08-20 11:30:00,2,27622,0,0.00,2,2,0,2,21922,35261,4508,25990,0,0,0,0,0.00,0.00,0.00,0.00
2013-08-20 11:40:00,2,31284,0,0.00,2,2,0,2,25540,38330,3473,31166,0,0,0,0,0.00,0.00,0.00,0.00
2013-08-20 11:50:00,2,31138,0,0.00,2,2,0,2,24325,39857,4875,30142,0,0,0,0,0.00,0.00,0.00,0.00
2013-08-20 12:00:00,2,36402,0,0.00,2,2,0,2,33054,43104,2707,35786,0,0,0,0,0.00,0.00,0.00,0.00
2013-08-20 12:10:00,2,41523,0,0.00,2,2,0,2,36455,47811,3600,40978,0,0,0,0,0.00,0.00,0.00,0.00
2013-08-20 12:20:00,2,36158,0,0.00,2,2,0,2,30495,45996,4805,34591,0,0,0,0,0.00,0.00,0.00,0.00
2013-08-20 12:30:00,2,34533,0,0.00,2,2,0,2,30543,38979,2842,35475,0,0,0,0,0.00,0.00,0.00,0.00
2013-08-20 12:40:00,2,37023,0,0.00,2,2,0,2,32776,43342,3137,36859,0,0,0,0,0.00,0.00,0.00,0.00
2013-08-20 12:50:00,2,39544,0,0.00,2,2,0,2,31898,44672,4055,40514,0,0,0,0,0.00,0.00,0.00,0.00
2013-08-20 13:00:00,2,39710,0,0.00,2,2,0,2,32696,45195,4183,40598,0,0,0,0,0.00,0.00,0.00,0.00
2013-08-20 13:10:00,2,35338,0,0.00,2,2,0,2,33494,37628,1521,35262,0,0,0,0,0.00,0.00,0.00,0.00
2013-08-20 13:20:00,2,33238,0,0.00,2,2,0,2,28575,39575,3134,33465,0,0,0,0,0.00,0.00,0.00,0.00
2013-08-20 13:30:00,2,33172,0,0.00,2,2,0,2,27633,38929,3849,32092,0,0,0,0,0.00,0.00,0.00,0.00
2013-08-20 13:40:00,2,39848,0,0.00,2,2,0,2,35028,43443,2195,40096,0,0,0,0,0.00,0.00,0.00,0.00
2013-08-20 13:50:00,2,33328,0,0.00,2,2,0,2,26581,40343,3302,33483,0,0,0,0,0.00,0.00,0.00,0.00
2013-08-20 14:00:00,2,33603,0,0.00,2,2,0,2,30097,38290,2838,32222,0,0,0,0,0.00,0.00,0.00,0.00
2013-08-20 14:10:00,2,33438,0,0.00,2,2,0,2,30488,36884,2446,32880,0,0,0,0,0.00,0.00,0.00,0.00
2013-08-20 14:20:00,2,40209,0,0.00,2,2,0,2,33449,46725,4166,40440,0,0,0,0,0.00,0.00,0.00,0.00
2013-08-20 14:30:00,2,43750,0,0.00,2,2,0,2,37064,47415,3052,44779,0,0,0,0,0.00,0.00,0.00,0.00
2013-08-20 14:40:00,2,48452,0,0.00,2,2,0,2,44573,50000,1818,49238,0,0,0,0,0.00,0.00,0.00,0.00
2013-08-20 14:50:00,2,39994,0,0.00,2,2,0,2,27952,48787,6540,40631,0,0,0,0,0.00,0.00,0.00,0.00
2013-08-20 15:00:00,2,32516,0,0.00,2,2,0,2,25356,41689,4931,32768,0,0,0,0,0.00,0.00,0.00,0.00
2013-08-20 15:10:00,2,27496,0,0.00,2,2,0,2,17579,39231,5898,26641,0,0,0,0,0.00,0.00,0.00,0.00
2013-08-20 15:20:00,2,38071,0,0.00,2,2,0,2,34982,41917,2330,37464,0,0,0,0,0.00,0.00,0.00,0.00
2013-08-20 15:30:00,2,42491,0,0.00,2,2,0,2,32085,50000,6888,43086,0,0,0,0,0.00,0.00,0.00,0.00
2013-08-20 15:40:00,2,40774,0,0.00,2,2,0,2,30497,50000,7692,42363,0,0,0,0,0.00,0.00,0.00,0.00
2013-08-20 15:50:00,2,37643,0,0.00,2,2,0,2,16418,49659,10657,42229,0,0,0,0,0.00,0.00,0.00,0.00
2013-08-20 16:00:00,2,21998,0,0.00,2,2,0,2,16461,27014,3662,22226,0,0,0,0,0.00,0.00,0.00,0.00
2013-08-20 16:10:00,2,29263,0,0.00,2,2,0,2,17030,41118,8314,30071,0,0,0,0,0.00,0.00,0.00,0.00
2013-08-20 16:20:00,2,42763,0,0.00,2,2,0,2,34545,50000,5205,43258,0,0,0,0,0.00,0.00,0.00,0.00
2013-08-20 16:30:00,2,28538,0,0.00,2,2,0,2,21358,35603,5767,29382,0,0,0,0,0.00,0.00,0.00,0.00
2013-08-20 16:40:00,2,21196,0,0.00,2,2,0,2,16102,27951,3562,21554,0,0,0,0,0.00,0.00,0.00,0.00
2013-08-20 16:50:00,2,25997,0,0.00,2,2,0,2,13996,37613,9314,27544,0,0,0,0,0.00,0.00,0.00,0.00
2013-08-20 17:00:00,2,38913,0,0.00,2,2,0,2,31511,44488,3741,38696,0,0,0,0,0.00,0.00,0.00,0.00
2013-08-20 17:10:00,2,45479,0,0.00,2,2,0,2,39230,50000,3571,45727,0,0,0,0,0.00,0.00,0.00,0.00
2013-08-20 17:20:00,2,39102,0,0.00,2,2,0,2,31085,44694,4319,40692,0,0,0,0,0.00,0.00,0.00,0.00
2013-08-20 17:30:00,2,35170,0,0.00,2,2,0,2,28539,40158,2834,35260,0,0,0,0,0.00,0.00,0.00,0.00
2013-08-20 17:40:00,2,32228,0,0.00,2,2,0,2,25581,45321,6122,30516,0,0,0,0,0.00,0.00,0.00,0.00
2013-08-20 17:50:00,2,41364,0,0.00,2,2,0,2,35366,49030,4590,40971,0,0,0,0,0.00,0.00,0.00,0.00
2013-08-20 18:00:00,2,32407,0,0.00,2,2,0,2,13322,41983,10050,37202,0,0,0,0,0.00,0.00,0.00,0.00
2013-08-20 18:10:00,2,20547,0,0.00,2,2,0,2,11940,29848,7006,20414,0,0,0,0,0.00,0.00,0.00,0.00
2013-08-20 18:20:00,2,37813,0,0.00,2,2,0,2,19541,50000,10907,41076,0,0,0,0,0.00,0.00,0.00,0.00
2013-08-20 18:30:00,2,28810,0,0.00,2,2,0,2,15599,42914,8797,27189,0,0,0,0,0.00,0.00,0.00,0.00
2013-08-20 18:40:00,2,21142,0,0.00,2,2,0,2,12011,34787,7267,19709,0,0,0,0,0.00,0.00,0.00,0.00
2013-08-20 18:50:00,2,17678,0,0.00,2,2,0,2,11352,30631,5174,17170,0,0,0,0,0.00,0.00,0.00,0.00
2013-08-20 19:00:00,2,33311,0,0.00,2,2,0,2,20400,42752,8084,34836,0,0,0,0,0.00,0.00,0.00,0.00
2013-08-20 19:10:00,2,46534,0,0.00,2,2,0,2,39506,50000,3775,47704,0,0,0,0,0.00,0.00,0.00,0.00
2013-08-20 19:20:00,2,29827,0,0.00,2,2,0,2,18612,39661,6420,30151,0,0,0,0,0.00,0.00,0.00,0.00
2013-08-20 19:30:00,2,30719,0,0.00,2,2,0,2,16313,44209,9117,30218,0,0,0,0,0.00,0.00,0.00,0.00
2013-08-20 19:40:00,2,34775,0,0.00,2,2,0,2,24375,49362,7411,33779,0,0,0,0,0.00,0.00,0.00,0.00
2013-08-20 19:50:00,2,44836,0,0.00,2,2,0,2,33947,50000,5810,47265,0,0,0,0,0.00,0.00,0.00,0.00
2013-08-20 20:00:00,2,35425,0,0.00,2,2,0,2,13217,50000,11733,35862,0,0,0,0,0.00,0.00,0.00,0.00
2013-08-20 20:10:00,2,47215,0,0.00,2,2,0,2,32507,50000,5516,50000,0,0,0,0,0.00,0.00,0.00,0.00
2013-08-20 20:20:00,2,33694,0,0.00,2,2,0,2,22589,42809,6057,36268,0,0,0,0,0.00,0.00,0.00,0.00
2013-08-20 20:30:00,2,45038,0,0.00,2,2,0,2,39119,50000,3538,45996,0,0,0,0,0.00,0.00,0.00,0.00
2013-08-20 20:40:00,2,46339,0,0.00,2,2,0,2,34502,50000,5089,48667,0,0,0,0,0.00,0.00,0.00,0.00
2013-08-20 20:50:00,2,38853,0,0.00,2,2,0,2,27980,48511,6735,41690,0,0,0,0,0.00,0.00,0.00,0.00
2013-08-20 21:00:00,2,44921,0,0.00,2,2,0,2,39089,50000,3614,44978,0,0,0,0,0.00,0.00,0.00,0.00
2013-08-20 21:10:00,2,49377,0,0.00,2,2,0,2,47194,50000,856,49801,0,0,0,0,0.00,0.00,0.00,0.00
2013-08-20 21:20:00,2,41897,0,0.00,2,2,0,2,32093,50000,5659,40127,0,0,0,0,0.00,0.00,0.00,0.00
2013-08-20 21:30:00,2,28671,0,0.00,2,2,0,2,17341,41117,7660,29672,0,0,0,0,0.00,0.00,0.00,0.00
2013-08-20 21:40:00,2,41868,0,0.00,2,2,0,2,36703,49903,3812,41117,0,0,0,0,0.00,0.00,0.00,0.00
2013-08-20 21:50:00,2,40490,0,0.00,2,2,0,2,27879,50000,8563,42012,0,0,0,0,0.00,0.00,0.00,0.00
2013-08-20 22:00:00,2,35792,0,0.00,2,2,0,2,27535,45541,6723,33527,0,0,0,0,0.00,0.00,0.00,0.00
2013-08-20 22:10:00,2,43759,0,0.00,2,2,0,2,32406,49406,5135,45440,0,0,0,0,0.00,0.00,0.00,0.00
2013-08-20 22:20:00,2,45032,0,0.00,2,2,0,2,34435,50000,5904,47827,0,0,0,0,0.00,0.00,0.00,0.00
2013-08-20 22:30:00,2,44751,0,0.00,2,2,0,2,34787,50000,4662,46376,0,0,0,0,0.00,0.00,0.00,0.00
2013-08-20 22:40:00,2,44705,0,0.00,2,2,0,2,28048,50000,7140,47594,0,0,0,0,0.00,0.00,0.00,0.00
2013-08-20 22:50:00,2,37416,0,0.00,2,2,0,2,30006,45440,4464,36876,0,0,0,0,0.00,0.00,0.00,0.00
2013-08-20 23:00:00,2,39804,0,0.00,2,2,0,2,31178,50000,5923,36972,0,0,0,0,0.00,0.00,0.00,0.00
2013-08-20 23:10:00,2,34684,0,0.00,2,2,0,2,25940,43467,5050,33271,0,0,0,0,0.00,0.00,0.00,0.00
2013-08-20 23:20:00,2,36086,0,0.00,2,2,0,2,27409,46045,6623,37302,0,0,0,0,0.00,0.00,0.00,0.00
2013-08-20 23:30:00,2,41646,0,0.00,2,2,0,2,36502,48806,2942,41616,0,0,0,0,0.00,0.00,0.00,0.00
2013-08-20 23:40:00,2,44352,0,0.00,2,2,0,2,35690,49451,4077,46066,0,0,0,0,0.00,0.00,0.00,0.00
2013-08-20 23:50:00,2,44307,0,0.00,2,2,0,2,36854,50000,3983,45558,0,0,0,0,0.00,0.00,0.00,0.00
